CANX-4

Last updated on Mon Sep 21 2026 00:03:44 GMT+0000 (Coordinated Universal Time)

1 40055U 14034C 26263.46117715 .00000517 00000+0 73359-4 0 9990 2 40055 98.2953 142.2024 0014000 66.7926 293.4758 14.81400522658631
UTC large
Height (km)
Speed (km/s)
/
Latitude / Longitude
Inclination (degrees)
Orbital Period (minutes)
Azimuth
Elevation
Range (km)
Doppler Factor

Next 0 passes for location: London (51.5072 / 0.1276)

No passes found over London.
CANX-4